{"data":{"norad_id":68300,"intl_designator":"2026-057G","name":"STARLINK-36875","alt_names":[],"object_type":"PAYLOAD","status":"ACTIVE","operator":null,"country":"US","launch_date":"2026-03-20","launch_site_code":"AFWTR","launch_vehicle":null,"mission":null,"orbit_class":"UNKNOWN","rcs_meters":null,"size_class":null,"mass_kg":null,"dimensions":null,"purposes":["comms"],"wikipedia_slug":null,"has_3d_model":false,"image_url":null,"decayed_at":null,"tle_current":{"epoch":"2026-09-19T22:15:01.934208Z","epoch_age_seconds":101164,"freshness":"FRESH","line1":"1 68300U 26057G   26262.92710572  .00024895  00000+0  76999-3 0  9998","line2":"2 68300  97.2822  28.3035 0002021  96.4207 263.7266 15.33481850 28429","mean_motion":15.3348185,"eccentricity":0.0002021,"inclination_deg":97.2822,"raan_deg":28.3035,"arg_perigee_deg":96.4207,"mean_anomaly_deg":263.7266,"bstar":0.00076999,"rev_number":2842,"period_min":93.903948064335,"perigee_km":464.05045139435,"apogee_km":466.81662260541,"semimajor_km":6843.5705369999,"source":"CELESTRAK","updated_at":"2026-09-20T09:00:43.854649Z"}}}